Vorticity
nan nan nan nan nan nan nan nan nan nan nan nan nan nan nan nan nan nan nan nan nan nan nan nan nan nan nan nan nan nan nan nan nan nan nan nan nan nan nan nan nan nan nan nan nan nan nan nan nan nan nan nan nan nan nan nan nan nan nan nan nan nan nan nan nan nan nan nan nan
nan 12 11 11 10 10 9 10 10 10 11 11 12 11 11 10 10 9 9 9 9 8 9 9 9 8 8 7 10 9 5 2 1 1 2 3 5 6 7 7 6 6 6 7 10 12 10 12 15 15 13 12 12 11 11 13 14 13 12 7 6 9 11 11 10 11 8 4 nan
nan 11 10 9 9 9 10 10 8 9 11 12 12 12 10 9 9 9 9 8 6 7 7 7 6 6 8 10 11 8 4 2 6 9 11 9 8 8 8 7 6 7 8 7 8 10 9 14 19 18 15 13 15 16 15 14 14 13 11 8 6 7 6 7 10 10 8 10 nan
nan 9 8 7 7 10 11 9 7 9 12 13 12 11 10 10 10 10 9 8 9 10 9 6 5 7 10 15 14 11 9 10 13 16 16 12 9 8 8 8 10 11 12 11 11 12 13 19 22 17 12 10 13 14 12 7 6 6 6 6 6 4 4 6 7 7 10 13 nan
nan 9 8 6 7 10 11 9 8 11 12 11 9 9 10 10 9 9 9 10 12 11 10 10 14 15 16 16 14 13 14 16 16 15 13 11 10 11 11 11 13 14 14 14 14 15 16 19 18 13 9 10 11 8 4 2 6 8 8 8 9 11 14 14 10 7 7 9 nan
nan 8 8 7 8 11 12 9 9 11 12 9 6 6 8 8 8 8 10 13 13 12 14 18 21 21 17 13 13 15 16 17 15 12 9 9 11 11 12 13 14 15 14 12 13 15 15 16 13 8 7 8 8 9 11 15 18 17 17 15 16 20 25 23 14 8 5 5 nan
nan 8 8 9 10 12 12 10 10 11 11 7 4 5 7 7 9 12 16 17 15 15 17 18 16 16 13 13 15 17 16 15 13 11 10 10 10 11 12 12 13 14 12 11 12 12 10 11 10 7 7 9 9 9 13 19 20 20 19 18 18 20 21 16 11 10 7 3 nan
nan 9 9 10 11 11 11 12 12 12 11 7 5 6 9 13 16 18 19 17 14 13 14 12 10 12 14 16 16 15 14 12 12 14 15 12 11 11 12 12 12 10 9 9 8 6 6 8 8 7 9 10 9 7 8 12 14 14 12 10 10 9 4 1 3 6 6 3 nan
nan 8 10 11 10 10 10 12 12 11 10 8 7 9 14 20 19 17 15 13 11 11 11 10 10 12 13 13 12 12 12 11 13 15 17 14 12 14 15 13 10 7 5 5 4 4 8 10 10 10 11 10 8 7 7 8 9 9 8 7 7 3 -1 1 6 8 8 8 nan
nan 9 10 10 8 8 9 11 11 11 10 9 9 12 17 21 16 13 12 11 10 9 10 10 11 10 9 7 7 8 11 14 15 15 16 16 16 16 17 13 5 4 4 7 8 11 15 16 14 14 15 15 13 13 11 11 10 9 8 8 9 10 10 12 15 16 17 16 nan
nan 9 9 7 6 7 9 10 11 10 10 8 8 13 17 18 13 11 10 10 9 9 10 10 9 8 6 4 4 7 12 19 22 20 19 18 15 12 10 6 2 4 8 14 17 19 20 19 17 18 21 23 23 20 19 21 21 17 13 11 12 14 15 17 20 21 19 18 nan
nan 8 8 6 5 7 9 10 10 8 7 6 9 13 17 15 10 8 8 10 11 11 10 10 9 8 7 5 5 11 16 22 25 20 13 8 4 1 0 1 4 8 12 17 20 20 17 15 15 15 17 22 22 17 16 24 29 25 21 18 18 18 16 17 19 19 16 15 nan
nan 7 7 6 6 8 9 10 11 8 7 7 11 15 19 14 9 7 7 10 12 13 12 11 9 9 8 9 11 16 20 21 15 10 3 -2 -3 -2 1 5 8 11 13 14 15 16 13 10 9 9 9 13 14 10 9 16 22 21 18 17 18 16 14 13 15 15 13 12 nan
nan 7 7 6 8 10 10 11 12 10 8 10 14 18 19 15 13 11 10 9 9 10 10 11 10 8 9 14 17 19 19 13 4 1 0 0 3 6 8 9 10 12 12 10 9 10 11 9 7 7 7 7 9 9 9 10 11 11 11 11 11 11 10 10 10 10 9 10 nan
nan 7 7 7 9 10 10 12 13 11 11 13 16 19 19 17 16 16 12 7 6 6 6 8 8 7 9 16 20 18 13 3 0 2 4 7 9 10 10 9 9 11 11 11 8 7 8 9 9 8 8 7 7 8 8 8 7 7 7 7 7 7 7 7 7 7 7 7 nan
nan 7 7 8 9 11 12 14 14 13 13 15 16 18 18 17 16 14 10 7 7 5 5 6 9 10 12 13 14 10 6 2 4 6 8 9 9 10 10 9 9 9 9 10 9 8 7 8 8 7 7 7 6 6 6 6 5 4 5 5 5 5 5 4 4 4 5 5 nan
nan 7 8 8 10 12 14 15 15 14 13 15 16 17 17 16 13 10 8 8 11 11 11 11 13 13 12 9 6 4 4 7 8 8 8 8 8 8 8 9 8 8 8 8 8 8 8 8 8 7 6 6 6 6 6 6 5 4 4 5 4 4 5 5 4 4 4 4 nan
nan 8 9 11 13 14 16 16 16 15 15 16 17 16 16 15 13 11 10 11 14 16 16 17 16 13 10 7 6 6 6 8 9 9 8 8 7 7 7 7 8 7 7 7 7 6 6 7 7 7 6 6 6 6 6 6 6 5 5 5 6 6 6 6 7 6 5 4 nan
nan 11 13 15 16 17 17 17 17 17 18 17 17 15 14 13 13 13 12 14 15 15 15 15 13 10 8 7 8 9 8 8 8 8 8 8 7 7 6 6 7 8 8 7 6 5 5 5 6 7 7 6 6 6 6 6 6 5 5 6 6 7 7 8 9 8 7 6 nan
nan 15 18 19 17 17 16 16 18 19 20 18 16 14 13 11 11 11 13 14 13 12 10 10 10 9 8 8 8 9 9 8 8 8 7 7 7 7 7 7 7 8 8 7 6 5 5 5 6 6 6 6 6 6 6 6 6 6 6 6 6 7 7 9 9 9 9 8 nan
nan 19 19 17 14 14 14 16 18 18 19 18 15 13 11 10 10 10 11 12 11 10 9 8 9 9 10 10 9 9 9 8 8 8 7 7 7 7 7 7 8 8 8 7 7 6 6 6 5 6 6 5 5 6 6 7 7 7 7 8 8 8 9 10 11 11 11 11 nan
nan 17 15 12 10 11 12 14 16 15 15 15 13 11 9 9 9 9 9 10 9 8 7 7 7 8 9 10 10 9 9 9 9 8 8 8 7 7 7 7 7 8 8 7 7 7 7 6 6 6 7 7 7 7 7 8 8 9 9 9 9 10 11 12 12 12 12 13 nan
nan 12 11 9 8 10 11 13 13 13 13 13 12 10 9 9 8 7 8 9 9 8 8 7 6 7 8 9 9 9 9 9 9 9 9 9 9 9 9 9 8 8 8 8 8 7 7 7 7 8 8 8 8 9 9 9 9 9 9 9 10 10 11 11 11 11 12 13 nan
nan 11 13 9 7 9 11 12 13 13 13 12 11 10 9 8 7 7 7 7 8 8 9 8 7 7 7 8 8 8 8 9 9 9 9 9 10 10 10 10 10 9 9 9 8 7 6 7 8 8 9 9 10 9 9 9 9 9 8 9 9 10 10 10 10 10 11 12 nan
nan 11 13 11 10 11 12 13 15 16 15 13 10 9 8 7 7 7 6 6 7 7 8 8 8 8 8 8 8 8 7 8 8 8 8 8 8 9 10 10 10 10 10 9 9 8 7 7 8 9 9 9 9 9 10 9 8 9 9 9 9 9 9 9 9 10 10 11 nan
nan 10 10 11 11 12 12 14 15 16 16 13 10 8 9 9 8 8 7 7 7 7 8 8 8 9 9 8 7 7 7 7 8 8 8 7 7 8 9 9 9 10 9 9 12 12 11 9 8 10 10 9 9 10 10 8 7 8 9 9 9 9 9 8 8 8 9 9 nan
nan 9 9 10 10 11 13 13 13 13 13 12 10 9 9 10 9 8 8 8 8 8 8 8 9 9 8 7 6 7 8 8 8 8 8 8 7 7 8 10 10 9 8 14 21 20 16 10 8 10 12 11 10 9 9 7 7 8 9 10 9 8 8 8 8 8 8 7 nan
nan 9 8 8 9 10 12 12 11 11 11 11 10 10 9 9 9 9 9 8 8 9 9 9 9 8 7 6 6 7 9 9 9 9 8 8 8 9 10 12 10 10 13 28 37 30 18 9 7 8 11 13 10 9 8 8 8 9 9 9 8 8 8 9 9 8 7 7 nan
nan 9 8 8 9 11 13 13 12 11 11 10 9 9 9 9 9 9 9 8 9 10 10 9 8 7 6 5 7 8 9 10 9 9 7 7 9 12 14 14 13 15 21 36 37 25 13 6 5 5 7 12 12 10 8 8 8 9 9 8 7 7 8 8 8 8 8 9 nan
nan 10 10 9 10 12 13 13 12 11 12 10 8 9 9 9 10 10 10 10 11 10 9 8 6 6 6 8 10 10 9 9 9 8 8 8 11 14 16 16 16 16 19 23 19 11 6 4 4 4 5 8 11 10 9 8 8 8 8 8 7 8 8 9 10 10 11 11 nan
nan 11 11 10 11 12 12 12 11 10 11 10 9 9 9 10 11 12 12 11 10 10 9 8 7 8 10 11 11 10 9 9 9 10 10 11 14 16 17 15 13 11 11 9 7 5 4 4 3 3 4 5 8 8 8 8 8 8 8 8 8 9 11 13 13 13 13 15 nan
nan 11 11 10 10 11 11 11 10 10 10 10 10 11 11 12 14 13 12 10 10 10 10 9 9 10 11 11 10 9 9 9 9 9 10 13 16 17 16 14 12 11 10 6 4 4 4 4 3 3 3 4 7 8 9 9 9 9 8 8 9 10 12 13 13 12 13 15 nan
nan 10 10 10 9 10 10 10 10 10 10 10 11 11 12 14 14 11 11 11 11 12 11 10 10 11 11 11 10 9 10 10 9 9 11 14 15 15 14 13 13 12 11 6 4 4 4 4 3 3 3 5 7 9 10 10 9 9 9 9 9 9 10 12 12 11 10 10 nan
nan 9 9 9 9 9 10 10 10 9 9 9 10 11 12 12 11 11 11 12 13 12 11 10 11 12 12 11 10 10 11 10 10 11 12 13 13 12 13 13 14 14 11 5 4 5 5 4 3 3 3 6 9 10 10 10 9 8 8 8 8 8 9 10 10 8 7 7 nan
nan 9 9 9 9 9 10 10 9 9 8 8 9 9 11 10 9 10 11 12 11 10 9 10 10 11 11 11 12 11 11 11 11 11 12 11 10 10 12 14 17 16 11 6 5 5 4 4 3 3 4 9 11 11 10 9 8 8 7 8 8 7 8 9 8 7 7 7 nan
nan 9 9 9 9 9 9 9 9 8 7 7 8 8 9 10 10 11 11 11 10 9 9 9 9 9 10 12 13 13 12 11 11 10 10 10 9 9 11 14 17 18 14 9 5 4 4 3 3 4 7 11 12 11 10 9 9 8 8 8 8 7 7 8 8 8 8 7 nan
nan 8 9 9 8 8 9 9 8 7 7 8 10 9 9 11 12 12 12 11 9 9 9 9 9 10 11 12 12 12 10 9 9 9 9 10 10 10 10 12 13 15 17 15 9 6 5 4 4 5 8 11 11 10 10 9 9 9 8 9 9 8 8 7 7 7 8 6 nan
nan 8 9 8 8 8 8 8 7 7 8 10 11 9 10 11 12 11 12 11 9 9 10 11 11 10 10 11 11 10 10 9 9 9 10 12 12 11 9 9 10 12 15 18 16 12 8 5 4 6 8 10 10 9 9 9 9 9 9 9 9 8 8 8 7 7 6 2 nan
nan 9 9 8 7 7 7 7 8 8 10 10 9 8 10 12 11 9 10 10 9 9 11 12 11 10 9 10 10 10 9 9 10 11 11 13 12 10 8 8 9 10 12 18 23 19 13 6 4 5 8 11 10 10 10 9 9 10 10 9 9 9 9 9 8 8 7 0 nan
nan 9 8 7 6 6 7 8 9 10 9 8 8 10 12 12 10 9 10 10 10 10 11 12 11 10 9 8 9 9 10 11 11 13 13 12 10 9 11 11 10 10 10 19 28 27 20 11 5 5 8 12 11 11 10 9 9 9 9 9 8 9 9 9 9 9 9 5 nan
nan nan nan nan nan nan nan nan nan nan nan nan nan nan nan nan nan nan nan nan nan nan nan nan nan nan nan nan nan nan nan nan nan nan nan nan nan nan nan nan nan nan nan nan nan nan nan nan nan nan nan nan nan nan nan nan nan nan nan nan nan nan nan nan nan nan nan nan nan
CAPE
nan nan nan nan nan nan nan nan nan nan nan nan nan nan nan nan nan nan nan nan nan nan nan nan nan nan nan nan nan nan nan nan nan nan nan nan nan nan nan nan nan nan nan nan nan nan nan nan nan nan nan nan nan nan nan nan nan nan nan nan nan nan nan nan nan nan nan nan nan
nan nan nan nan nan nan nan nan nan nan nan nan nan nan nan nan nan nan nan nan nan nan nan nan nan nan nan nan nan nan nan nan nan nan nan nan nan nan nan nan nan nan nan nan nan nan nan nan nan nan nan nan nan nan nan nan nan nan nan nan nan nan nan nan nan nan nan nan nan
nan nan nan nan nan nan nan nan nan nan nan nan nan nan nan nan nan nan nan nan nan nan nan nan nan nan nan nan nan nan nan nan nan nan nan nan nan nan nan nan nan nan nan nan nan nan nan nan nan nan nan nan nan nan nan nan nan nan nan nan nan nan nan nan nan nan nan nan nan
nan nan nan nan nan nan nan nan nan nan nan nan nan nan nan nan nan nan nan nan nan nan nan nan nan nan nan nan nan nan nan nan nan nan nan nan nan nan nan nan nan nan nan nan nan nan nan nan 1 1 nan nan nan nan nan nan nan nan nan nan nan nan nan nan nan nan nan nan nan
nan nan nan nan nan nan nan nan nan nan nan nan nan nan nan nan nan nan nan nan nan nan nan nan nan nan nan nan nan nan 0 nan nan nan nan nan nan nan nan nan 0 1 1 nan nan nan 8 9 11 11 6 nan nan nan nan nan nan nan nan nan nan nan nan nan nan nan nan nan nan
nan nan nan nan nan nan nan nan nan nan nan nan nan nan nan nan nan nan nan nan nan nan nan nan nan nan nan nan nan nan nan nan nan nan nan nan nan nan nan 1 0 0 0 nan 3 3 26 22 17 17 10 10 8 9 9 4 3 2 2 nan nan nan nan nan nan nan nan nan nan
nan nan nan nan nan nan nan nan nan nan nan nan nan nan nan nan nan nan nan nan nan nan nan nan nan nan nan nan nan nan nan nan nan nan nan nan nan 0 0 nan nan nan nan 0 13 13 34 20 17 17 5 4 22 28 28 27 15 2 2 nan 0 2 2 5 10 10 5 nan nan
nan nan nan nan nan nan nan nan nan nan nan nan nan nan nan nan nan nan nan nan nan nan nan nan nan nan nan nan nan nan nan nan nan nan nan nan nan nan nan nan nan 0 0 0 10 10 15 10 8 8 10 10 18 21 21 20 12 0 0 1 25 24 24 18 30 30 20 nan nan
nan nan nan nan nan nan nan nan nan nan nan nan nan nan nan nan nan nan nan nan nan nan nan nan nan nan nan nan nan nan nan nan nan nan nan nan nan nan nan nan nan nan nan 0 6 6 9 9 7 7 9 11 15 14 14 13 2 nan nan nan 2 5 5 9 21 21 22 4 nan
nan nan nan nan nan nan nan nan nan nan nan nan nan nan nan nan nan nan nan nan nan nan nan nan nan nan nan nan nan nan nan nan nan nan nan nan nan 3 3 2 1 1 1 1 10 10 14 16 12 12 10 16 12 5 5 2 0 nan nan nan nan nan nan nan nan nan 3 0 nan
nan nan nan nan nan nan nan nan nan nan nan nan nan nan nan nan nan nan nan nan nan nan nan nan nan nan nan nan nan nan nan nan nan nan nan nan 0 7 7 4 2 2 2 4 9 9 18 22 16 16 12 15 11 8 8 4 5 0 0 nan nan nan nan nan nan nan nan 0 0
nan nan nan nan nan nan nan nan nan nan nan nan nan nan nan nan nan nan nan nan nan nan nan nan nan nan nan nan nan nan nan 0 1 2 2 8 8 4 4 2 2 1 1 2 5 5 8 5 4 4 2 5 12 10 10 4 nan nan nan nan nan nan nan nan 0 0 1 2 1
nan nan nan nan nan nan nan nan nan nan nan nan nan nan nan nan nan nan nan nan nan nan nan nan nan nan nan nan nan nan 3 12 8 2 2 2 2 2 2 1 0 1 1 1 2 2 1 0 0 0 nan 0 1 1 1 1 1 0 0 1 0 1 1 1 2 2 3 2 2
nan nan nan nan nan nan nan nan nan nan nan nan nan nan nan nan nan nan nan nan nan nan nan nan nan nan nan nan nan nan 11 13 2 2 2 3 2 0 0 0 nan 0 0 1 0 0 nan 0 nan nan nan nan 0 0 0 1 1 2 2 1 0 1 1 1 2 2 2 2 2
nan nan nan nan nan nan nan nan nan nan nan nan nan nan nan nan nan nan nan nan nan nan nan nan nan nan nan nan nan nan 11 4 2 2 2 0 0 nan nan nan nan 0 0 nan nan nan nan nan nan nan nan nan 0 0 0 0 1 1 1 1 2 2 2 2 2 2 2 2 2
nan nan nan nan nan nan nan nan nan nan nan nan nan nan nan nan nan nan nan nan nan nan nan nan nan nan nan nan 1 1 3 4 1 0 0 nan nan nan nan nan nan nan nan nan nan nan nan nan nan nan nan nan 0 0 0 0 0 1 1 1 2 1 1 2 1 1 1 1 0
nan nan nan nan nan nan nan nan nan nan nan nan nan nan nan nan nan nan nan nan nan nan nan nan nan nan nan nan nan nan 1 1 0 nan nan nan nan nan nan nan nan nan nan nan nan nan nan nan nan nan 0 1 0 0 0 1 1 2 2 3 3 2 2 0 1 1 1 0 0
nan nan nan nan nan nan nan nan nan nan nan nan nan nan nan nan nan nan nan nan nan nan nan nan nan nan nan nan nan nan nan nan nan nan nan nan nan nan nan nan nan nan nan nan nan nan nan nan nan nan nan 0 2 2 2 3 3 2 2 1 2 2 2 2 1 1 0 1 nan
nan nan nan nan nan nan nan nan nan nan nan nan nan nan nan nan nan nan nan nan nan nan nan nan nan nan nan nan nan nan nan nan nan nan nan nan nan nan nan nan nan nan nan nan nan nan nan nan nan nan nan nan nan nan nan nan nan nan nan nan nan nan nan 0 nan nan 0 0 nan
nan nan nan nan nan nan nan nan nan nan nan nan nan nan nan nan nan nan nan nan nan nan nan nan nan nan nan nan nan nan nan nan nan nan nan nan nan nan nan nan nan nan nan nan nan nan nan nan nan nan nan nan nan nan nan nan nan nan nan nan nan nan nan nan nan nan 1 1 0
nan nan nan nan nan nan nan nan nan nan nan nan nan nan nan nan nan nan nan nan nan nan nan nan nan nan nan nan nan nan nan nan nan nan nan nan nan nan nan nan nan nan nan nan nan nan nan nan nan nan nan nan nan nan nan nan nan nan nan nan nan nan nan nan nan nan nan 2 1
nan nan nan nan nan nan nan nan nan nan nan nan nan nan nan nan nan nan nan nan nan nan nan nan nan nan nan nan nan nan nan nan nan nan nan nan nan nan nan nan nan nan nan nan nan nan nan nan nan nan nan nan nan nan nan nan nan nan nan nan nan nan nan nan nan nan nan nan nan
nan nan nan nan nan nan nan nan nan nan nan nan nan nan nan nan nan nan nan nan nan nan nan nan nan nan nan nan nan nan nan nan nan nan nan nan nan nan nan nan nan nan nan nan nan nan nan nan nan nan nan nan nan nan nan nan nan nan nan nan nan nan nan nan nan nan nan nan nan
nan nan nan nan nan nan nan nan nan nan nan nan nan nan nan nan nan nan nan nan nan nan nan nan nan nan nan nan nan nan nan nan nan nan nan nan nan nan nan nan nan nan nan nan nan nan nan nan nan nan nan nan nan nan nan nan nan nan nan nan nan nan nan nan nan nan nan nan nan
nan nan nan nan nan nan nan 0 4 4 3 nan nan nan nan nan nan nan nan nan nan nan nan nan nan nan nan nan nan nan nan nan nan nan nan nan nan nan nan nan nan nan nan nan nan nan nan nan nan nan nan nan nan nan nan nan nan nan nan nan nan nan nan nan nan nan nan nan nan
nan nan nan nan nan nan nan 1 4 4 3 nan nan nan nan nan nan nan nan nan nan nan nan nan nan nan nan nan nan nan nan nan nan nan nan nan nan nan nan nan nan nan nan nan nan nan nan nan nan nan nan nan nan nan nan nan nan nan nan nan nan nan nan nan nan nan nan nan nan
nan nan nan nan nan nan nan 0 0 0 nan nan nan nan nan nan nan nan nan nan nan nan nan nan nan nan nan nan nan nan nan nan nan nan nan nan nan nan nan nan nan nan nan nan nan nan nan nan nan nan nan nan nan nan nan nan nan nan nan nan nan nan nan nan nan nan nan nan nan
nan nan nan nan nan nan nan nan nan nan nan nan nan nan nan nan nan nan nan nan nan nan nan nan nan nan nan nan nan nan nan nan nan nan nan nan nan nan nan nan nan nan nan nan nan nan nan nan nan nan nan nan nan nan nan nan nan nan nan nan nan nan nan nan nan nan nan nan nan
nan nan nan nan nan nan nan nan nan nan nan nan nan nan nan nan nan nan nan nan nan nan nan nan nan nan nan nan nan nan nan nan nan nan nan nan nan nan nan nan nan nan nan nan nan nan nan nan nan nan nan nan nan nan nan nan nan nan nan nan nan nan nan nan nan nan nan nan nan
nan nan nan nan nan nan nan nan nan nan nan nan nan nan nan nan nan nan nan nan nan nan nan nan nan nan nan nan nan nan nan nan nan nan nan nan nan nan nan nan nan nan nan 1 nan nan nan nan nan nan nan nan nan nan nan nan nan nan nan nan nan nan nan nan nan nan nan nan nan
nan nan nan nan nan nan nan nan nan nan nan nan nan nan nan nan nan nan nan nan nan nan nan nan nan nan nan nan nan nan nan nan nan nan nan nan nan nan nan nan nan nan nan nan nan nan nan nan nan nan nan nan nan nan nan nan nan nan nan nan nan nan nan nan nan nan nan nan nan
nan nan nan nan nan nan nan nan nan nan nan nan nan nan nan nan nan nan nan nan nan nan nan nan nan nan nan nan nan nan nan nan nan nan nan nan nan nan nan nan nan nan nan nan nan nan nan nan nan nan nan nan nan nan nan nan nan nan nan nan nan nan nan nan nan nan nan nan nan
nan nan nan nan nan nan nan nan nan nan nan nan nan nan nan nan nan nan nan nan nan nan nan nan nan nan nan nan nan nan 7 4 nan nan nan nan nan nan nan nan nan nan nan nan nan nan nan nan nan nan nan nan nan nan nan nan nan nan nan nan nan nan nan nan nan nan nan nan nan
nan nan nan nan nan nan nan nan nan nan nan nan nan nan nan nan nan nan nan nan nan nan nan nan nan nan nan nan 1 1 nan nan nan nan nan nan nan nan nan nan nan nan nan nan nan nan nan nan nan nan nan nan nan nan nan nan nan nan nan nan nan nan nan nan nan nan nan nan nan
nan nan nan nan nan nan nan nan nan nan nan nan nan nan nan nan nan nan nan nan nan nan nan nan nan nan nan nan nan nan nan nan nan nan nan nan nan nan nan nan nan nan nan nan nan nan nan nan nan nan nan nan nan nan nan nan nan nan nan nan nan nan nan nan nan nan nan nan nan
nan nan nan nan nan nan nan nan nan nan nan nan nan nan nan nan nan nan nan nan nan nan nan nan nan nan nan nan nan nan nan nan nan nan nan nan nan nan nan nan nan nan nan nan nan nan nan nan nan nan nan nan nan nan nan nan nan nan nan nan nan nan nan nan nan nan nan nan nan
nan nan nan nan nan nan nan nan nan nan nan nan nan nan nan nan nan nan nan nan nan nan nan nan nan nan nan nan nan nan nan nan nan nan nan nan nan nan nan nan nan nan nan nan nan nan nan nan nan nan nan nan nan nan nan nan nan nan nan nan nan nan nan nan nan nan nan nan nan
nan nan nan nan nan nan nan nan nan nan nan nan nan nan nan nan nan nan nan nan nan nan nan nan nan nan nan nan nan nan nan nan nan nan nan nan nan nan nan nan nan nan nan nan nan nan nan nan nan nan nan nan nan nan nan nan nan nan nan nan nan nan nan nan nan nan nan nan nan
nan nan nan nan nan nan nan nan nan nan nan nan nan nan nan nan nan nan nan nan nan nan nan nan nan nan nan nan nan nan nan nan nan nan nan nan nan nan nan nan nan nan nan 0 3 3 nan nan nan nan nan nan nan nan nan nan nan nan nan nan nan nan nan nan nan nan nan nan nan
nan nan nan nan nan nan nan nan nan nan nan nan nan nan nan nan nan nan nan nan nan nan nan nan nan nan nan nan nan nan nan nan nan nan nan nan nan nan nan nan nan nan nan 3 17 17 2 nan nan nan nan nan nan nan nan nan nan nan nan nan nan nan nan nan nan nan nan nan nan
nan nan nan nan nan nan nan nan nan nan nan nan nan nan nan nan nan nan nan nan nan nan nan nan nan nan nan nan nan nan nan nan nan nan nan nan nan 4 4 nan nan nan nan nan 35 35 16 6 1 1 nan nan nan nan nan nan nan nan nan nan nan nan nan nan nan nan nan nan nan